sat.trackr.live / text

‹ back to catalog

STARLINK-31659

NORAD 59254 · 2024-050A

PAYLOAD ACTIVE UNKNOWN

§ Identity

Operator
Country
US
Launch date
2024-03-19
Launch site
AFWTR
Launch vehicle
Mass (kg)
RCS (m²)

Purposes: comms

External: N2YO · Heavens-Above · Gunter

§ Orbital elements

Epoch: 2026-05-24T14:25:52.447008Z

Period
93.85 min
Inclination
53.1601°
Eccentricity
0.0001191
Mean motion
15.34393433 rev/d
Perigee alt
461.9 km
Apogee alt
463.5 km
Semi-major
6,840.9 km
B*
1.2318e-6
RAAN
185.3719°
Arg perigee
75.1178°
Mean anomaly
284.9957°
Rev number
12,336

§ Raw data

STARLINK-316591 59254U 24050A   26144.60130147 -.00000335  00000+0  12318-5 0  99962 59254  53.1601 185.3719 0001191  75.1178 284.9957 15.34393433123365

JSON: /api/v1/satellites/59254 · /tle

For live sub-satellite position, see the globe view (requires WebGL).

§ Visibility from observer

Set your observer location to see the next 7 days of passes ≥ 10°. The values pass through the URL so the page stays shareable.

No JS? Fill the form by hand. The geolocation button needs JavaScript.